{"data":{"norad_id":53834,"intl_designator":"2022-114S","name":"STARLINK-4737","alt_names":[],"object_type":"PAYLOAD","status":"ACTIVE","operator":null,"country":"US","launch_date":"2022-09-19","launch_site_code":"AFETR","launch_vehicle":null,"mission":null,"orbit_class":"UNKNOWN","rcs_meters":null,"size_class":null,"mass_kg":null,"dimensions":null,"purposes":["comms"],"wikipedia_slug":null,"has_3d_model":false,"image_url":null,"decayed_at":null,"tle_current":{"epoch":"2026-09-20T22:51:40.517856Z","epoch_age_seconds":45016,"freshness":"FRESH","line1":"1 53834U 22114S   26263.95255229  .00001179  00000+0  44700-4 0  9997","line2":"2 53834  53.1601 137.4704 0001051  86.2997 273.8126 15.35403382222442","mean_motion":15.35403382,"eccentricity":0.0001051,"inclination_deg":53.1601,"raan_deg":137.4704,"arg_perigee_deg":86.2997,"mean_anomaly_deg":273.8126,"bstar":4.47e-5,"rev_number":22244,"period_min":93.786428822651,"perigee_km":459.0039426077,"apogee_km":460.44126069596,"semimajor_km":6837.8596016518,"source":"CELESTRAK","updated_at":"2026-09-21T09:00:33.000656Z"}}}